| time (UTC) | temp F | wind direction | speed MPH | gust MPH | rain 1hr in | rain 24hr in | rain mn in | humidity % | barometer mb |
| 20260905174821 | 89 | 0 | 6.0 | 10.0 | 0.00 | 0.00 | 0.00 | ||
| 20260905174324 | 88 | 357 | 3.0 | 11.0 | 0.00 | 0.00 | 0.00 | ||
| 20260905173819 | 88 | 351 | 5.0 | 11.0 | 0.00 | 0.00 | 0.00 | ||
| 20260905173320 | 87 | 356 | 5.0 | 10.0 | 0.00 | 0.00 | 0.00 | ||
| 20260905172822 | 87 | 1 | 6.0 | 11.0 | 0.00 | 0.00 | 0.00 | ||
| 20260905172323 | 86 | 0 | 5.0 | 11.0 | 0.00 | 0.00 | 0.00 | ||
| 20260905171823 | 86 | 359 | 6.0 | 10.0 | 0.00 | 0.00 | 0.00 | ||
| 20260905171345 | 86 | 0 | 4.0 | 11.0 | 0.00 | 0.00 | 0.00 | ||
| 20260905170817 | 85 | 2 | 4.0 | 12.0 | 0.00 | 0.00 | 0.00 | ||
| 20260905170317 | 85 | 357 | 6.0 | 12.0 | 0.00 | 0.00 | 0.00 | ||
| 20260905165819 | 85 | 0 | 5.0 | 10.0 | 0.00 | 0.00 | 0.00 | ||
| 20260905165323 | 84 | 0 | 3.0 | 12.0 | 0.00 | 0.00 | 0.00 | ||
| 20260905164327 | 83 | 356 | 4.0 | 11.0 | 0.00 | 0.00 | 0.00 | ||
| 20260905163822 | 83 | 354 | 6.0 | 11.0 | 0.00 | 0.00 | 0.00 | ||
| 20260905163324 | 82 | 348 | 5.0 | 10.0 | 0.00 | 0.00 | 0.00 | ||
| 20260905162331 | 82 | 0 | 4.0 | 11.0 | 0.00 | 0.00 | 0.00 | ||
| 20260905161832 | 81 | 352 | 4.0 | 8.0 | 0.00 | 0.00 | 0.00 | ||
| 20260905160829 | 80 | 357 | 6.0 | 11.0 | 0.00 | 0.00 | 0.00 | ||
| 20260905160331 | 80 | 12 | 5.0 | 9.0 | 0.00 | 0.00 | 0.00 | ||
| 20260905155831 | 80 | 0 | 2.0 | 8.0 | 0.00 | 0.00 | 0.00 | ||
| 20260905154343 | 78 | 350 | 2.0 | 6.0 | 0.00 | 0.00 | 0.00 | ||
| 20260905153835 | 78 | 345 | 2.0 | 6.0 | 0.00 | 0.00 | 0.00 | ||
| 20260905152818 | 77 | 357 | 3.0 | 6.0 | 0.00 | 0.00 | 0.00 | ||
| 20260905152323 | 76 | 5 | 1.0 | 5.0 | 0.00 | 0.00 | 0.00 | ||
| 20260905151825 | 76 | 3 | 2.0 | 5.0 | 0.00 | 0.00 | 0.00 | ||
| 20260905151345 | 76 | 354 | 2.0 | 4.0 | 0.00 | 0.00 | 0.00 | ||
| 20260905150837 | 75 | 349 | 2.0 | 4.0 | 0.00 | 0.00 | 0.00 | ||
| 20260905150318 | 75 | 0 | 2.0 | 4.0 | 0.00 | 0.00 | 0.00 | ||
| 20260905145820 | 74 | 358 | 1.0 | 2.0 | 0.00 | 0.00 | 0.00 | ||
| 20260905145321 | 74 | 0 | 0.0 | 1.0 | 0.00 | 0.00 | 0.00 | ||
| 20260905144823 | 74 | 0 | 0.0 | 1.0 | 0.00 | 0.00 | 0.00 | ||
| 20260905144344 | 73 | 0 | 0.0 | 1.0 | 0.00 | 0.00 | 0.00 | ||
| 20260905143836 | 73 | 0 | 0.0 | 2.0 | 0.00 | 0.00 | 0.00 | ||
| 20260905143336 | 73 | 0 | 0.0 | 2.0 | 0.00 | 0.00 | 0.00 | ||
| 20260905142815 | 73 | 0 | 0.0 | 1.0 | 0.00 | 0.00 | 0.00 | ||
| 20260905142318 | 72 | 320 | 0.0 | 1.0 | 0.00 | 0.00 | 0.00 | ||
| 20260905141822 | 72 | 0 | 0.0 | 2.0 | 0.00 | 0.00 | 0.00 | ||
| 20260905140818 | 72 | 0 | 1.0 | 2.0 | 0.00 | 0.00 | 0.00 | ||
| 20260905135825 | 71 | 28 | 0.0 | 2.0 | 0.00 | 0.00 | 0.00 | ||
| 20260905134833 | 71 | 0 | 0.0 | 1.0 | 0.00 | 0.00 | 0.00 | ||
| 20260905134338 | 71 | 0 | 0.0 | 1.0 | 0.00 | 0.00 | 0.00 | ||
| 20260905133830 | 71 | 0 | 0.0 | 1.0 | 0.00 | 0.00 | 0.00 | ||
| 20260905133330 | 71 | 0 | 0.0 | 0.0 | 0.00 | 0.00 | 0.00 | ||
| 20260905132831 | 71 | 0 | 0.0 | 0.0 | 0.00 | 0.00 | 0.00 | ||
| 20260905132332 | 71 | 0 | 0.0 | 0.0 | 0.00 | 0.00 | 0.00 | ||
| 20260905131831 | 71 | 0 | 0.0 | 0.0 | 0.00 | 0.00 | 0.00 | ||
| 20260905131332 | 71 | 0 | 0.0 | 0.0 | 0.00 | 0.00 | 0.00 | ||
| 20260905130826 | 72 | 0 | 0.0 | 0.0 | 0.00 | 0.00 | 0.00 | ||
| 20260905130328 | 72 | 0 | 0.0 | 1.0 | 0.00 | 0.00 | 0.00 | ||
| 20260905125833 | 72 | 0 | 0.0 | 1.0 | 0.00 | 0.00 | 0.00 | ||
| 20260905125335 | 72 | 0 | 0.0 | 1.0 | 0.00 | 0.00 | 0.00 | ||
| 20260905124836 | 72 | 0 | 0.0 | 1.0 | 0.00 | 0.00 | 0.00 | ||
| 20260905124338 | 72 | 0 | 0.0 | 0.0 | 0.00 | 0.00 | 0.00 | ||
| 20260905123333 | 73 | 0 | 0.0 | 4.0 | 0.00 | 0.00 | 0.00 | ||
| 20260905122835 | 73 | 0 | 0.0 | 0.0 | 0.00 | 0.00 | 0.00 | ||
| 20260905122335 | 73 | 0 | 0.0 | 0.0 | 0.00 | 0.00 | 0.00 | ||
| 20260905121339 | 73 | 0 | 0.0 | 1.0 | 0.00 | 0.00 | 0.00 | ||
| 20260905120831 | 73 | 0 | 0.0 | 6.0 | 0.00 | 0.00 | 0.00 | ||
| 20260905120331 | 73 | 0 | 1.0 | 6.0 | 0.00 | 0.00 | 0.00 | ||
| 20260905115833 | 73 | 0 | 1.0 | 2.0 | 0.00 | 0.00 | 0.00 | ||
| 20260905115316 | 73 | 0 | 0.0 | 1.0 | 0.00 | 0.00 | 0.00 | ||
| 20260905114820 | 73 | 0 | 0.0 | 0.0 | 0.00 | 0.00 | 0.00 | ||
| 20260905114341 | 73 | 0 | 0.0 | 0.0 | 0.00 | 0.00 | 0.00 | ||
| 20260905113317 | 74 | 0 | 0.0 | 1.0 | 0.00 | 0.00 | 0.00 | ||
| 20260905112820 | 74 | 0 | 0.0 | 2.0 | 0.00 | 0.00 | 0.00 | ||
| 20260905112320 | 74 | 0 | 0.0 | 2.0 | 0.00 | 0.00 | 0.00 | ||
| 20260905111845 | 74 | 135 | 0.0 | 1.0 | 0.00 | 0.00 | 0.00 | ||
| 20260905111314 | 74 | 0 | 0.0 | 1.0 | 0.00 | 0.00 | 0.00 | ||
| 20260905110820 | 74 | 0 | 0.0 | 1.0 | 0.00 | 0.00 | 0.00 | ||
| 20260905110333 | 74 | 0 | 0.0 | 1.0 | 0.00 | 0.00 | 0.00 | ||
| 20260905105834 | 75 | 0 | 0.0 | 1.0 | 0.00 | 0.00 | 0.00 | ||
| 20260905105335 | 75 | 0 | 0.0 | 1.0 | 0.00 | 0.00 | 0.00 | ||
| 20260905104338 | 75 | 0 | 0.0 | 0.0 | 0.00 | 0.00 | 0.00 | ||
| 20260905103334 | 76 | 0 | 0.0 | 1.0 | 0.00 | 0.00 | 0.00 | ||
| 20260905102323 | 76 | 0 | 0.0 | 2.0 | 0.00 | 0.00 | 0.00 | ||
| 20260905101823 | 76 | 353 | 0.0 | 2.0 | 0.00 | 0.00 | 0.00 | ||
| 20260905100820 | 76 | 0 | 0.0 | 2.0 | 0.00 | 0.00 | 0.00 | ||
| 20260905095327 | 76 | 0 | 0.0 | 3.0 | 0.00 | 0.00 | 0.00 | ||
| 20260905094827 | 76 | 359 | 0.0 | 4.0 | 0.00 | 0.00 | 0.00 | ||
| 20260905094330 | 76 | 0 | 1.0 | 4.0 | 0.00 | 0.00 | 0.00 | ||
| 20260905093822 | 76 | 335 | 0.0 | 1.0 | 0.00 | 0.00 | 0.00 | ||
| 20260905092825 | 76 | 0 | 0.0 | 3.0 | 0.00 | 0.00 | 0.00 | ||
| 20260905092329 | 76 | 1 | 0.0 | 3.0 | 0.00 | 0.00 | 0.00 | ||
| 20260905091832 | 76 | 344 | 0.0 | 2.0 | 0.00 | 0.00 | 0.00 | ||
| 20260905091333 | 76 | 0 | 0.0 | 1.0 | 0.00 | 0.00 | 0.00 | ||
| 20260905090825 | 76 | 0 | 0.0 | 1.0 | 0.00 | 0.00 | 0.00 | ||
| 20260905090326 | 77 | 0 | 0.0 | 1.0 | 0.00 | 0.00 | 0.00 | ||
| 20260905085834 | 77 | 0 | 0.0 | 1.0 | 0.00 | 0.00 | 0.00 | ||
| 20260905085337 | 77 | 0 | 0.0 | 1.0 | 0.00 | 0.00 | 0.00 | ||
| 20260905084819 | 77 | 0 | 0.0 | 1.0 | 0.00 | 0.00 | 0.00 | ||
| 20260905084341 | 77 | 0 | 0.0 | 2.0 | 0.00 | 0.00 | 0.00 | ||
| 20260905083337 | 77 | 0 | 0.0 | 2.0 | 0.00 | 0.00 | 0.00 | ||
| 20260905081828 | 77 | 260 | 1.0 | 3.0 | 0.00 | 0.00 | 0.00 | ||
| 20260905080824 | 77 | 0 | 0.0 | 0.0 | 0.00 | 0.00 | 0.00 | ||
| 20260905080329 | 77 | 0 | 0.0 | 1.0 | 0.00 | 0.00 | 0.00 | ||
| 20260905075830 | 78 | 0 | 0.0 | 1.0 | 0.00 | 0.00 | 0.00 | ||
| 20260905075331 | 78 | 0 | 0.0 | 1.0 | 0.00 | 0.00 | 0.00 | ||
| 20260905074832 | 78 | 0 | 0.0 | 0.0 | 0.00 | 0.00 | 0.00 | ||
| 20260905073826 | 78 | 0 | 0.0 | 1.0 | 0.00 | 0.00 | 0.00 | ||
| 20260905073332 | 78 | 0 | 0.0 | 1.0 | 0.00 | 0.00 | 0.00 | ||
| 20260905072835 | 79 | 0 | 0.0 | 1.0 | 0.00 | 0.00 | 0.00 | ||
| 20260905072335 | 79 | 0 | 0.0 | 1.0 | 0.00 | 0.00 | 0.00 | ||
| 20260905071815 | 79 | 0 | 0.0 | 1.0 | 0.00 | 0.00 | 0.00 | ||
| 20260905071339 | 79 | 0 | 0.0 | 2.0 | 0.00 | 0.00 | 0.00 | ||
| 20260905070831 | 79 | 0 | 0.0 | 2.0 | 0.00 | 0.00 | 0.00 | ||
| 20260905065831 | 79 | 0 | 0.0 | 1.0 | 0.00 | 0.00 | 0.00 | ||
| 20260905065332 | 79 | 0 | 0.0 | 0.0 | 0.00 | 0.00 | 0.00 | ||
| 20260905064337 | 80 | 0 | 0.0 | 2.0 | 0.00 | 0.00 | 0.00 | ||
| 20260905063831 | 80 | 0 | 0.0 | 1.0 | 0.00 | 0.00 | 0.00 | ||
| 20260905063335 | 80 | 0 | 0.0 | 2.0 | 0.00 | 0.00 | 0.00 | ||
| 20260905062818 | 80 | 0 | 0.0 | 2.0 | 0.00 | 0.00 | 0.00 | ||
| 20260905061332 | 81 | 0 | 0.0 | 1.0 | 0.00 | 0.00 | 0.00 | ||
| 20260905060330 | 81 | 0 | 0.0 | 0.0 | 0.00 | 0.00 | 0.00 | ||
| 20260905055831 | 81 | 0 | 0.0 | 0.0 | 0.00 | 0.00 | 0.00 | ||
| 20260905054343 | 82 | 0 | 0.0 | 1.0 | 0.00 | 0.00 | 0.00 | ||
| 20260905053834 | 82 | 0 | 0.0 | 2.0 | 0.00 | 0.00 | 0.00 | ||
| 20260905053336 | 82 | 0 | 0.0 | 2.0 | 0.00 | 0.00 | 0.00 | ||
| 20260905052816 | 83 | 0 | 1.0 | 2.0 | 0.00 | 0.00 | 0.00 | ||
| 20260905052337 | 83 | 0 | 0.0 | 1.0 | 0.00 | 0.00 | 0.00 | ||
| 20260905051818 | 83 | 0 | 0.0 | 2.0 | 0.00 | 0.00 | 0.00 | ||
| 20260905051341 | 83 | 0 | 0.0 | 2.0 | 0.00 | 0.00 | 0.00 | ||
| 20260905050833 | 84 | 0 | 0.0 | 2.0 | 0.00 | 0.00 | 0.00 | ||
| 20260905045818 | 84 | 0 | 0.0 | 1.0 | 0.00 | 0.00 | 0.00 | ||
| 20260905045324 | 85 | 0 | 0.0 | 1.0 | 0.00 | 0.00 | 0.00 | ||
| 20260905044824 | 85 | 0 | 0.0 | 1.0 | 0.00 | 0.00 | 0.00 | ||
| 20260905044326 | 85 | 0 | 0.0 | 1.0 | 0.00 | 0.00 | 0.00 | ||
| 20260905043818 | 85 | 0 | 0.0 | 2.0 | 0.00 | 0.00 | 0.00 | ||
| 20260905043318 | 86 | 0 | 1.0 | 2.0 | 0.00 | 0.00 | 0.00 | ||
| 20260905042822 | 86 | 0 | 1.0 | 5.0 | 0.00 | 0.00 | 0.00 | ||
| 20260905042323 | 86 | 0 | 1.0 | 5.0 | 0.00 | 0.00 | 0.00 | ||
| 20260905041328 | 87 | 359 | 1.0 | 3.0 | 0.00 | 0.00 | 0.00 | ||
| 20260905040819 | 87 | 0 | 1.0 | 3.0 | 0.00 | 0.00 | 0.00 | ||
| 20260905040321 | 87 | 0 | 1.0 | 5.0 | 0.00 | 0.00 | 0.00 | ||
| 20260905035327 | 88 | 0 | 1.0 | 5.0 | 0.00 | 0.00 | 0.00 | ||
| 20260905034827 | 88 | 0 | 2.0 | 5.0 | 0.00 | 0.00 | 0.00 | ||
| 20260905034328 | 88 | 0 | 1.0 | 5.0 | 0.00 | 0.00 | 0.00 | ||
| 20260905033825 | 89 | 0 | 2.0 | 8.0 | 0.00 | 0.00 | 0.00 | ||
| 20260905033324 | 89 | 0 | 3.0 | 8.0 | 0.00 | 0.00 | 0.00 | ||
| 20260905032826 | 89 | 0 | 2.0 | 5.0 | 0.00 | 0.00 | 0.00 | ||
| 20260905032326 | 89 | 0 | 2.0 | 5.0 | 0.00 | 0.00 | 0.00 | ||
| 20260905031829 | 89 | 0 | 3.0 | 5.0 | 0.00 | 0.00 | 0.00 | ||
| 20260905031330 | 90 | 0 | 3.0 | 5.0 | 0.00 | 0.00 | 0.00 | ||
| 20260905030822 | 90 | 353 | 2.0 | 5.0 | 0.00 | 0.00 | 0.00 | ||
| 20260905030325 | 90 | 0 | 2.0 | 5.0 | 0.00 | 0.00 | 0.00 | ||
| 20260905025826 | 90 | 0 | 2.0 | 5.0 | 0.00 | 0.00 | 0.00 | ||
| 20260905025326 | 90 | 0 | 2.0 | 5.0 | 0.00 | 0.00 | 0.00 | ||
| 20260905024329 | 91 | 0 | 3.0 | 10.0 | 0.00 | 0.00 | 0.00 | ||
| 20260905023823 | 91 | 0 | 3.0 | 10.0 | 0.00 | 0.00 | 0.00 | ||
| 20260905022832 | 92 | 0 | 4.0 | 8.0 | 0.00 | 0.00 | 0.00 | ||
| 20260905022318 | 92 | 0 | 4.0 | 8.0 | 0.00 | 0.00 | 0.00 | ||
| 20260905020818 | 93 | 0 | 5.0 | 10.0 | 0.00 | 0.00 | 0.00 | ||
| 20260905015821 | 94 | 0 | 3.0 | 12.0 | 0.00 | 0.00 | 0.00 | ||
| 20260905015323 | 94 | 0 | 4.0 | 12.0 | 0.00 | 0.00 | 0.00 | ||
| 20260905014328 | 95 | 0 | 8.0 | 12.0 | 0.00 | 0.00 | 0.00 | ||
| 20260905013822 | 95 | 348 | 4.0 | 12.0 | 0.00 | 0.00 | 0.00 | ||
| 20260905012828 | 96 | 0 | 8.0 | 17.0 | 0.00 | 0.00 | 0.00 | ||
| 20260905012327 | 96 | 357 | 8.0 | 17.0 | 0.00 | 0.00 | 0.00 | ||
| 20260905011829 | 96 | 0 | 11.0 | 17.0 | 0.00 | 0.00 | 0.00 | ||
| 20260905011329 | 97 | 0 | 6.0 | 14.0 | 0.00 | 0.00 | 0.00 | ||
| 20260905010823 | 97 | 358 | 8.0 | 18.0 | 0.00 | 0.00 | 0.00 | ||
| 20260905010321 | 97 | 359 | 10.0 | 18.0 | 0.00 | 0.00 | 0.00 | ||
| 20260905005828 | 98 | 0 | 8.0 | 16.0 | 0.00 | 0.00 | 0.00 | ||
| 20260905005328 | 98 | 355 | 8.0 | 15.0 | 0.00 | 0.00 | 0.00 | ||
| 20260905004830 | 98 | 349 | 7.0 | 15.0 | 0.00 | 0.00 | 0.00 | ||
| 20260905002828 | 97 | 0 | 6.0 | 15.0 | 0.00 | 0.00 | 0.00 | ||
| 20260905002330 | 97 | 358 | 9.0 | 14.0 | 0.00 | 0.00 | 0.00 | ||
| 20260905001831 | 97 | 0 | 4.0 | 15.0 | 0.00 | 0.00 | 0.00 | ||
| 20260905000830 | 97 | 0 | 12.0 | 17.0 | 0.00 | 0.00 | 0.00 | ||
| 20260904235835 | 97 | 0 | 8.0 | 17.0 | 0.00 | 0.00 | 0.00 | ||
| 20260904235335 | 97 | 0 | 5.0 | 16.0 | 0.00 | 0.00 | 0.00 | ||
| 20260904234818 | 97 | 0 | 8.0 | 16.0 | 0.00 | 0.00 | 0.00 | ||
| 20260904234340 | 97 | 354 | 6.0 | 12.0 | 0.00 | 0.00 | 0.00 | ||
| 20260904233834 | 97 | 0 | 5.0 | 12.0 | 0.00 | 0.00 | 0.00 | ||
| 20260904233318 | 97 | 284 | 5.0 | 18.0 | 0.00 | 0.00 | 0.00 | ||
| 20260904232820 | 97 | 0 | 11.0 | 18.0 | 0.00 | 0.00 | 0.00 | ||
| 20260904232323 | 97 | 356 | 8.0 | 16.0 | 0.00 | 0.00 | 0.00 | ||
| 20260904231823 | 97 | 0 | 8.0 | 13.0 | 0.00 | 0.00 | 0.00 | ||
| 20260904231345 | 97 | 0 | 8.0 | 15.0 | 0.00 | 0.00 | 0.00 | ||
| 20260904225825 | 97 | 0 | 9.0 | 18.0 | 0.00 | 0.00 | 0.00 | ||
| 20260904225324 | 97 | 0 | 10.0 | 18.0 | 0.00 | 0.00 | 0.00 | ||
| 20260904224826 | 97 | 359 | 8.0 | 17.0 | 0.00 | 0.00 | 0.00 | ||
| 20260904224328 | 97 | 0 | 9.0 | 14.0 | 0.00 | 0.00 | 0.00 | ||
| 20260904223820 | 97 | 357 | 6.0 | 17.0 | 0.00 | 0.00 | 0.00 | ||
| 20260904223320 | 97 | 0 | 5.0 | 17.0 | 0.00 | 0.00 | 0.00 | ||
| 20260904222322 | 97 | 0 | 10.0 | 18.0 | 0.00 | 0.00 | 0.00 | ||
| 20260904221823 | 97 | 359 | 8.0 | 22.0 | 0.00 | 0.00 | 0.00 | ||
| 20260904221330 | 97 | 0 | 12.0 | 22.0 | 0.00 | 0.00 | 0.00 | ||
| 20260904220823 | 97 | 354 | 8.0 | 18.0 | 0.00 | 0.00 | 0.00 | ||
| 20260904220325 | 97 | 358 | 12.0 | 18.0 | 0.00 | 0.00 | 0.00 | ||
| 20260904215826 | 97 | 0 | 8.0 | 20.0 | 0.00 | 0.00 | 0.00 | ||
| 20260904215330 | 97 | 0 | 13.0 | 20.0 | 0.00 | 0.00 | 0.00 | ||
| 20260904214332 | 97 | 0 | 11.0 | 16.0 | 0.00 | 0.00 | 0.00 | ||
| 20260904213821 | 96 | 355 | 7.0 | 16.0 | 0.00 | 0.00 | 0.00 | ||
| 20260904213322 | 96 | 0 | 9.0 | 16.0 | 0.00 | 0.00 | 0.00 | ||
| 20260904212824 | 96 | 0 | 7.0 | 18.0 | 0.00 | 0.00 | 0.00 | ||
| 20260904212325 | 97 | 0 | 11.0 | 18.0 | 0.00 | 0.00 | 0.00 | ||
| 20260904211829 | 97 | 0 | 10.0 | 16.0 | 0.00 | 0.00 | 0.00 | ||
| 20260904210824 | 96 | 355 | 10.0 | 19.0 | 0.00 | 0.00 | 0.00 | ||
| 20260904205330 | 96 | 348 | 4.0 | 15.0 | 0.00 | 0.00 | 0.00 | ||
| 20260904204817 | 96 | 0 | 10.0 | 15.0 | 0.00 | 0.00 | 0.00 | ||
| 20260904204338 | 96 | 0 | 6.0 | 15.0 | 0.00 | 0.00 | 0.00 | ||
| 20260904203830 | 96 | 357 | 6.0 | 19.0 | 0.00 | 0.00 | 0.00 | ||
| 20260904203330 | 95 | 0 | 5.0 | 19.0 | 0.00 | 0.00 | 0.00 | ||
| 20260904202831 | 95 | 353 | 7.0 | 15.0 | 0.00 | 0.00 | 0.00 | ||
| 20260904202332 | 95 | 358 | 6.0 | 15.0 | 0.00 | 0.00 | 0.00 | ||
| 20260904201833 | 95 | 0 | 10.0 | 15.0 | 0.00 | 0.00 | 0.00 | ||
| 20260904201333 | 95 | 359 | 8.0 | 16.0 | 0.00 | 0.00 | 0.00 | ||
| 20260904200827 | 94 | 353 | 9.0 | 17.0 | 0.00 | 0.00 | 0.00 | ||
| 20260904200330 | 94 | 354 | 6.0 | 21.0 | 0.00 | 0.00 | 0.00 | ||
| 20260904194837 | 94 | 359 | 13.0 | 21.0 | 0.00 | 0.00 | 0.00 | ||
| 20260904194339 | 94 | 0 | 8.0 | 15.0 | 0.00 | 0.00 | 0.00 | ||
| 20260904193830 | 93 | 356 | 8.0 | 15.0 | 0.00 | 0.00 | 0.00 | ||
| 20260904193316 | 93 | 0 | 11.0 | 15.0 | 0.00 | 0.00 | 0.00 | ||
| 20260904192819 | 93 | 0 | 8.0 | 15.0 | 0.00 | 0.00 | 0.00 | ||
| 20260904192318 | 93 | 0 | 7.0 | 16.0 | 0.00 | 0.00 | 0.00 | ||
| 20260904191823 | 92 | 0 | 11.0 | 19.0 | 0.00 | 0.00 | 0.00 | ||
| 20260904191348 | 92 | 0 | 13.0 | 19.0 | 0.00 | 0.00 | 0.00 | ||
| 20260904190322 | 92 | 359 | 8.0 | 20.0 | 0.00 | 0.00 | 0.00 | ||
| 20260904185827 | 92 | 359 | 10.0 | 20.0 | 0.00 | 0.00 | 0.00 | ||
| 20260904185329 | 91 | 354 | 7.0 | 20.0 | 0.00 | 0.00 | 0.00 | ||
| 20260904184828 | 91 | 0 | 6.0 | 17.0 | 0.00 | 0.00 | 0.00 | ||
| 20260904184330 | 91 | 0 | 7.0 | 17.0 | 0.00 | 0.00 | 0.00 | ||
| 20260904183822 | 91 | 359 | 6.0 | 14.0 | 0.00 | 0.00 | 0.00 | ||
| 20260904182827 | 90 | 0 | 8.0 | 16.0 | 0.00 | 0.00 | 0.00 | ||
| 20260904182333 | 90 | 0 | 8.0 | 15.0 | 0.00 | 0.00 | 0.00 | ||
| 20260904181834 | 90 | 359 | 9.0 | 16.0 | 0.00 | 0.00 | 0.00 | ||
| 20260904181335 | 90 | 348 | 8.0 | 16.0 | 0.00 | 0.00 | 0.00 | ||
| 20260904180829 | 89 | 343 | 9.0 | 16.0 | 0.00 | 0.00 | 0.00 | ||
| 20260904180331 | 89 | 0 | 5.0 | 14.0 | 0.00 | 0.00 | 0.00 | ||
| 20260904175831 | 88 | 0 | 11.0 | 15.0 | 0.00 | 0.00 | 0.00 | ||
| 20260904175334 | 88 | 0 | 7.0 | 17.0 | 0.00 | 0.00 | 0.00 |